Location: Unspecified
(45.3712°N, 0.6436°E)
Time: 03:15:38
(UTC+01:00)

OTV 5 (USA 277) - Visible Passes

Search period start: 19 February 2018 00:00
Search period end: 01 March 2018 00:00
Orbit: 404 x 417 km, 43.0° (Epoch: 07 September)

Date Brightness Start Highest point End Pass type
(mag) Time Alt. Az. Time Alt. Az. Time Alt. Az.
20 Feb ? 06:46:47 10° S 06:48:48 15° SSE 06:50:49 10° ESE visible
21 Feb ? 05:57:06 10° SSE 05:57:56 11° SSE 05:58:47 10° SE visible
22 Feb ? 06:40:50 10° SW 06:43:40 27° SSE 06:46:32 10° E visible
23 Feb ? 05:52:17 20° SSE 05:52:45 21° SSE 05:55:18 10° ESE visible
24 Feb ? 05:03:42 11° ESE 05:03:42 11° ESE 05:03:52 10° ESE visible
24 Feb ? 06:36:28 17° SW 06:38:39 43° SSE 06:41:49 10° E visible
25 Feb ? 05:47:48 35° SSE 05:47:48 35° SSE 05:50:44 10° E visible
26 Feb ? 04:59:06 13° ESE 04:59:06 13° ESE 04:59:35 10° E visible
26 Feb ? 06:31:51 22° WSW 06:33:44 55° S 06:36:58 10° E visible
27 Feb ? 05:43:07 46° SE 05:43:07 46° SE 05:45:56 10° E visible
28 Feb ? 04:54:23 13° E 04:54:23 13° E 04:54:52 10° E visible
28 Feb ? 06:27:08 24° WSW 06:28:49 55° S 06:32:03 10° ESE visible
